Lid_Strength_Index
0 -1 -1 -1 -1 -1 -1 -1 -1 -1 -1 -1 -1 -1 -1 -1 -1 -2 -2 -2 -2 -2 -2 -2 -2 -2 -2 -2 -2 -2 -2 -1 -1 -1 -1 -2 -2 -1 -1 -1 -1 -1 -1
-1 -1 -1 -1 -1 -1 -1 -1 -1 -2 -1 -1 -1 -1 -1 -1 -1 -1 -2 -2 -2 -2 -2 -2 -2 -2 -2 -1 -1 -2 -1 -1 -1 -1 -2 -2 -2 -2 -2 -2 -2 -1 -1
-0 -1 -1 -1 -1 -2 -2 -1 -1 -1 -1 -1 -1 -1 -1 -1 -1 -2 -1 -1 -2 -2 -2 -2 -2 -1 -1 -1 -1 -1 -1 -1 -1 -1 -2 -1 -1 -2 -2 -1 -1 -1 -2
-1 -1 -1 -0 -1 -2 -1 -1 -2 -1 -1 -1 -1 -1 -1 -1 -2 -2 -1 -1 -2 -2 -2 -2 -1 -0 0 -0 -0 -1 -1 -1 -1 -1 -1 -1 -1 -2 -2 -2 -2 -2 -2
-1 -1 -1 -1 -1 -2 -2 -2 -2 -2 -2 -1 -1 -1 -1 -1 -1 -1 -1 -1 -1 -2 -2 -2 -1 -0 1 1 0 -1 -1 -1 -1 -1 -1 -1 -1 -1 -1 -1 -2 -2 -2
-1 -1 -1 -1 -1 -2 -1 -2 -1 -1 -1 -1 -1 -1 -1 -1 -1 -1 -1 -1 -1 -2 -2 -2 -2 -0 1 2 1 -1 -1 -1 -1 -1 -1 -1 -2 -1 -2 -1 -1 -2 -2
-0 -1 -1 -1 -1 -1 -1 -1 -2 -2 -1 -1 -1 -1 -1 -1 -1 -1 -1 -1 -2 -2 -2 -2 -2 -0 1 1 1 -1 -1 -0 -1 -1 -1 -1 -1 -1 -1 -1 -1 -1 -1
-0 -1 -1 0 0 -1 -1 -1 -1 -1 -1 -1 -1 -1 -1 -1 -1 -1 -1 -1 -1 -2 -2 -2 -2 -1 1 1 -0 -0 -0 0 -1 -1 -1 -1 -2 -1 -1 -1 -1 -1 -1
-1 -1 -1 -1 -1 2 0 -0 -1 -1 -1 -1 -1 -1 -1 -1 -1 -1 -2 -1 -1 -2 -2 -2 -1 -1 1 1 0 -0 1 1 0 -0 -0 -1 -2 -2 -2 -1 -1 -1 -1
4 2 -0 -1 -1 -1 -1 2 1 0 -1 -1 -1 -0 1 0 -1 -1 -0 -1 -1 -1 -1 -1 -1 -1 1 2 2 3 3 2 1 1 0 -0 -1 -1 -1 -1 -2 -1 -1
5 4 5 4 0 -0 -1 -0 2 1 1 0 0 1 1 -1 -1 -1 1 -0 -1 -1 -1 -0 0 1 3 5 5 5 4 4 3 3 2 1 -1 -1 -1 -1 -1 -1 -1
6 6 5 4 4 3 -1 -1 -1 -1 -1 -2 -1 -1 -1 -1 -1 -1 1 1 -0 -0 -1 -1 0 2 2 4 5 4 5 5 5 4 4 3 1 -1 -1 -1 -0 -1 -1
7 6 5 5 4 3 -1 -1 -1 -1 -1 -2 -1 -1 -1 -1 -1 -0 0 -0 -1 1 -0 -0 0 -1 1 2 4 5 5 5 5 5 5 4 2 1 -0 -2 -1 -1 -1
7 6 5 5 4 3 -0 -1 -1 -1 -1 -1 -1 -1 -1 -1 -1 -0 1 -0 0 1 1 1 1 -0 1 2 3 4 5 5 5 5 5 6 4 2 0 -1 -2 -1 -1
8 6 5 4 3 3 2 -1 -1 -1 -1 -1 -1 -1 -1 -1 -1 -1 -0 0 0 1 1 -1 1 2 0 1 3 4 5 5 5 5 5 5 5 3 1 -0 -2 -2 -1
8 7 5 4 2 2 -0 -0 -0 0 0 1 1 0 0 0 0 1 0 1 1 1 1 1 2 3 3 4 3 4 4 4 5 5 5 5 5 4 3 1 -1 -2 -2
8 7 8 6 2 1 2 3 4 4 3 4 3 3 2 1 1 1 2 2 2 2 2 3 5 4 4 4 4 6 6 4 4 5 5 5 5 4 4 2 1 -1 -2
8 9 8 6 5 5 5 6 7 7 6 6 6 4 4 3 3 3 3 3 3 4 4 5 6 5 5 6 6 6 6 4 5 5 5 5 5 5 4 4 3 2 0
8 9 8 7 6 6 7 8 9 8 7 6 5 6 5 4 4 4 4 5 5 5 5 5 6 5 5 5 7 6 6 7 6 5 5 5 6 6 6 5 5 4 3
8 8 8 8 7 7 7 8 7 7 8 7 7 7 6 6 4 4 4 5 4 4 5 5 5 6 7 8 8 8 7 7 8 6 5 6 7 7 7 6 5 5 4
9 8 8 8 7 6 5 6 7 8 9 10 10 9 8 8 7 6 6 5 5 5 6 5 5 6 6 7 6 5 5 6 7 7 6 6 7 8 7 7 7 6 5
10 10 9 9 8 7 7 7 8 10 11 11 11 11 11 10 10 9 8 8 8 7 7 7 6 6 6 6 8 6 7 6 7 6 6 7 8 7 7 8 7 7 7
12 11 10 10 9 8 8 9 10 10 11 11 12 12 12 12 11 11 11 11 10 9 9 9 8 7 7 6 7 8 8 9 9 6 6 7 7 7 7 7 7 7 7
13 12 11 11 10 10 9 9 10 11 13 13 13 12 12 12 12 11 11 11 11 11 11 11 10 10 8 9 7 7 6 8 10 10 7 7 8 8 7 7 7 7 7
13 13 12 12 12 11 11 11 11 12 12 12 12 12 12 12 12 12 12 11 11 11 11 11 11 10 10 11 10 10 9 8 7 10 10 10 10 9 8 8 8 8 7
14 13 13 13 13 12 12 12 12 12 12 12 12 12 12 12 12 12 12 12 12 12 11 11 11 11 11 11 11 11 11 11 12 12 13 12 11 10 10 9 9 8 7